Time,TemperatureF,DewpointF,PressureIn,WindDirection,WindDirectionDegrees,WindSpeedMPH,WindSpeedGustMPH,Humidity,HourlyPrecipIn,Conditions,Clouds,dailyrainin,SoftwareType,DateUTC
2013-06-12 00:03:00,77.0,69.0,29.61,South,181,4.0,9.0,77,87.56,,,-99.99,,2013-06-12 05:03:00,
2013-06-12 00:12:00,76.0,69.0,29.60,SSE,162,5.0,12.0,78,87.56,,,-99.99,,2013-06-12 05:12:00,
2013-06-12 00:22:00,76.0,69.0,29.60,SSE,162,5.0,12.0,78,87.56,,,-99.99,,2013-06-12 05:22:00,
2013-06-12 00:32:00,76.0,69.0,29.59,SSE,162,3.0,9.0,79,87.56,,,-99.99,,2013-06-12 05:32:00,
2013-06-12 00:42:00,76.0,69.0,29.59,South,176,4.0,8.0,80,87.56,,,-99.99,,2013-06-12 05:42:00,
2013-06-12 00:52:00,76.0,69.0,29.59,South,176,4.0,8.0,80,87.56,,,-99.99,,2013-06-12 05:52:00,
2013-06-12 01:02:00,76.0,70.0,29.59,SSE,153,3.0,11.0,81,87.56,,,-99.99,,2013-06-12 06:02:00,
2013-06-12 01:12:00,76.0,70.0,29.59,SSE,153,3.0,11.0,81,87.56,,,-99.99,,2013-06-12 06:12:00,
2013-06-12 01:22:00,75.0,69.0,29.59,South,181,4.0,11.0,83,87.56,,,-99.99,,2013-06-12 06:22:00,
2013-06-12 01:32:00,75.0,70.0,29.59,SE,132,4.0,10.0,84,87.56,,,-99.99,,2013-06-12 06:32:00,
2013-06-12 01:42:00,75.0,70.0,29.59,SE,129,2.0,5.0,84,87.56,,,-99.99,,2013-06-12 06:42:00,
2013-06-12 01:52:00,75.0,70.0,29.59,SE,129,2.0,5.0,84,87.56,,,-99.99,,2013-06-12 06:52:00,
2013-06-12 02:02:00,74.0,70.0,29.59,South,170,3.0,8.0,86,87.56,,,-99.99,,2013-06-12 07:02:00,
2013-06-12 02:12:00,74.0,70.0,29.58,SSE,163,4.0,10.0,86,87.56,,,-99.99,,2013-06-12 07:12:00,
2013-06-12 02:22:00,74.0,70.0,29.58,SE,146,4.0,10.0,87,87.56,,,-99.99,,2013-06-12 07:22:00,
2013-06-12 02:33:00,74.0,70.0,29.58,SSW,198,4.0,11.0,87,87.56,,,-99.99,,2013-06-12 07:33:00,
2013-06-12 02:43:00,73.0,69.0,29.57,SSE,149,4.0,10.0,88,87.56,,,-99.99,,2013-06-12 07:43:00,
2013-06-12 02:53:00,73.0,70.0,29.57,South,188,4.0,8.0,89,87.56,,,-99.99,,2013-06-12 07:53:00,
2013-06-12 03:02:00,74.0,71.0,29.57,SE,145,3.0,9.0,90,87.56,,,-99.99,,2013-06-12 08:02:00,
2013-06-12 03:12:00,73.0,70.0,29.57,SSE,159,3.0,12.0,90,87.56,,,-99.99,,2013-06-12 08:12:00,
2013-06-12 03:22:00,73.0,70.0,29.57,SSE,152,3.0,10.0,91,87.56,,,-99.99,,2013-06-12 08:22:00,
2013-06-12 03:33:00,73.0,71.0,29.57,SSW,197,3.0,10.0,92,87.56,,,-99.99,,2013-06-12 08:33:00,
2013-06-12 03:43:00,73.0,71.0,29.57,SE,146,4.0,13.0,93,87.56,,,-99.99,,2013-06-12 08:43:00,
2013-06-12 03:53:00,72.0,70.0,29.57,South,181,3.0,10.0,93,87.56,,,-99.99,,2013-06-12 08:53:00,
2013-06-12 04:01:00,72.0,70.0,29.57,SE,146,3.0,8.0,94,87.56,,,-99.99,,2013-06-12 09:01:00,
2013-06-12 04:11:00,72.0,70.0,29.57,SSE,152,2.0,8.0,95,87.56,,,-99.99,,2013-06-12 09:11:00,
2013-06-12 04:22:00,72.0,70.0,29.57,SSE,156,4.0,12.0,95,87.56,,,-99.99,,2013-06-12 09:22:00,
2013-06-12 04:33:00,72.0,71.0,29.57,South,173,4.0,9.0,96,87.56,,,-99.99,,2013-06-12 09:33:00,
2013-06-12 04:42:00,72.0,70.0,29.57,SE,139,5.0,10.0,95,87.56,,,-99.99,,2013-06-12 09:42:00,
2013-06-12 04:53:00,72.0,70.0,29.57,SSE,148,3.0,10.0,95,87.56,,,-99.99,,2013-06-12 09:53:00,
2013-06-12 05:02:00,72.0,70.0,29.57,South,174,4.0,10.0,95,87.56,,,-99.99,,2013-06-12 10:02:00,
2013-06-12 05:11:00,72.0,70.0,29.57,South,170,3.0,10.0,95,87.56,,,-99.99,,2013-06-12 10:11:00,
2013-06-12 05:23:00,72.0,70.0,29.58,SSE,162,4.0,10.0,95,87.56,,,-99.99,,2013-06-12 10:23:00,
2013-06-12 05:33:00,72.0,70.0,29.58,SSE,166,3.0,9.0,94,87.56,,,-99.99,,2013-06-12 10:33:00,
2013-06-12 05:43:00,72.0,70.0,29.58,SSE,150,4.0,10.0,93,87.56,,,-99.99,,2013-06-12 10:43:00,
2013-06-12 05:53:00,72.0,70.0,29.58,SSE,156,4.0,10.0,92,87.56,,,-99.99,,2013-06-12 10:53:00,
2013-06-12 06:02:00,72.0,69.0,29.58,SSE,163,3.0,7.0,91,87.56,,,-99.99,,2013-06-12 11:02:00,
2013-06-12 06:12:00,73.0,70.0,29.57,South,187,3.0,8.0,89,87.56,,,-99.99,,2013-06-12 11:12:00,
2013-06-12 06:24:00,73.0,69.0,29.57,South,174,3.0,12.0,88,87.56,,,-99.99,,2013-06-12 11:24:00,
2013-06-12 06:33:00,73.0,69.0,29.57,South,176,3.0,11.0,88,87.56,,,-99.99,,2013-06-12 11:33:00,
2013-06-12 06:43:00,73.0,69.0,29.57,SSE,162,4.0,11.0,87,87.56,,,-99.99,,2013-06-12 11:43:00,
2013-06-12 06:53:00,73.0,69.0,29.57,SSW,204,4.0,10.0,87,87.56,,,-99.99,,2013-06-12 11:53:00,
2013-06-12 07:01:00,73.0,69.0,29.57,SSE,149,4.0,14.0,87,87.56,,,-99.99,,2013-06-12 12:01:00,
2013-06-12 07:11:00,74.0,70.0,29.57,SSE,166,5.0,11.0,86,87.56,,,-99.99,,2013-06-12 12:11:00,
2013-06-12 07:23:00,73.0,68.0,29.57,South,170,5.0,13.0,85,87.56,,,-99.99,,2013-06-12 12:23:00,
2013-06-12 07:33:00,74.0,69.0,29.57,South,183,5.0,14.0,85,87.56,,,-99.99,,2013-06-12 12:33:00,
2013-06-12 07:42:00,74.0,69.0,29.56,South,188,3.0,10.0,85,87.56,,,-99.99,,2013-06-12 12:42:00,
2013-06-12 07:53:00,74.0,69.0,29.56,SSE,162,4.0,11.0,84,87.56,,,-99.99,,2013-06-12 12:53:00,
2013-06-12 08:01:00,75.0,69.0,29.55,SSE,163,5.0,13.0,83,87.56,,,-99.99,,2013-06-12 13:01:00,
2013-06-12 08:12:00,75.0,69.0,29.55,SE,141,4.0,13.0,82,87.56,,,-99.99,,2013-06-12 13:12:00,
2013-06-12 08:22:00,75.0,69.0,29.55,SSE,155,5.0,14.0,81,87.56,,,-99.99,,2013-06-12 13:22:00,
2013-06-12 08:32:00,75.0,68.0,29.55,South,169,4.0,14.0,80,87.56,,,-99.99,,2013-06-12 13:32:00,
2013-06-12 08:53:00,76.0,69.0,29.54,SSE,152,6.0,14.0,79,87.56,,,-99.99,,2013-06-12 13:53:00,
2013-06-12 09:02:00,77.0,70.0,29.54,SSW,201,5.0,12.0,79,87.56,,,-99.99,,2013-06-12 14:02:00,
2013-06-12 09:43:00,78.0,69.0,29.53,South,183,5.0,18.0,75,87.56,,,-99.99,,2013-06-12 14:43:00,
2013-06-12 09:53:00,78.0,69.0,29.53,SE,136,6.0,14.0,74,87.56,,,-99.99,,2013-06-12 14:53:00,
2013-06-12 10:01:00,78.0,69.0,29.54,South,180,6.0,14.0,74,87.56,,,-99.99,,2013-06-12 15:01:00,
2013-06-12 10:12:00,78.0,69.0,29.53,SE,143,5.0,15.0,73,87.56,,,-99.99,,2013-06-12 15:12:00,
2013-06-12 10:23:00,78.0,69.0,29.54,SE,139,5.0,16.0,74,87.56,,,-99.99,,2013-06-12 15:23:00,
2013-06-12 10:33:00,79.0,69.0,29.54,ESE,108,5.0,14.0,72,87.56,,,-99.99,,2013-06-12 15:33:00,
2013-06-12 10:43:00,80.0,70.0,29.53,SSE,148,4.0,14.0,72,87.56,,,-99.99,,2013-06-12 15:43:00,
2013-06-12 10:52:00,80.0,70.0,29.53,SSE,152,3.0,10.0,72,87.56,,,-99.99,,2013-06-12 15:52:00,
2013-06-12 11:01:00,80.0,70.0,29.53,South,191,5.0,14.0,71,87.56,,,-99.99,,2013-06-12 16:01:00,
2013-06-12 11:11:00,80.0,69.0,29.54,SSW,211,5.0,13.0,69,87.56,,,-99.99,,2013-06-12 16:11:00,
2013-06-12 11:22:00,81.0,70.0,29.54,SSW,208,4.0,12.0,70,87.56,,,-99.99,,2013-06-12 16:22:00,
2013-06-12 11:32:00,81.0,70.0,29.54,SW,233,5.0,15.0,69,87.56,,,-99.99,,2013-06-12 16:32:00,
2013-06-12 11:43:00,81.0,69.0,29.54,WSW,239,3.0,12.0,67,87.56,,,-99.99,,2013-06-12 16:43:00,
2013-06-12 11:52:00,82.0,70.0,29.54,South,186,3.0,11.0,67,87.56,,,-99.99,,2013-06-12 16:52:00,
2013-06-12 12:01:00,82.0,68.0,29.54,SW,225,5.0,13.0,63,87.56,,,-99.99,,2013-06-12 17:01:00,
2013-06-12 12:22:00,82.0,69.0,29.54,South,188,5.0,16.0,64,87.56,,,-99.99,,2013-06-12 17:22:00,
2013-06-12 12:33:00,84.0,71.0,29.53,South,170,5.0,13.0,65,87.56,,,-99.99,,2013-06-12 17:33:00,
2013-06-12 12:42:00,83.0,70.0,29.54,SSW,200,5.0,15.0,64,87.56,,,-99.99,,2013-06-12 17:42:00,
2013-06-12 12:52:00,83.0,69.0,29.53,SE,138,3.0,12.0,63,87.56,,,-99.99,,2013-06-12 17:52:00,
2013-06-12 13:02:00,83.0,70.0,29.54,SW,233,5.0,14.0,64,87.56,,,-99.99,,2013-06-12 18:02:00,
2013-06-12 13:22:00,84.0,70.0,29.54,South,173,4.0,15.0,63,87.56,,,-99.99,,2013-06-12 18:22:00,
2013-06-12 13:32:00,84.0,69.0,29.54,SSW,198,5.0,19.0,61,87.56,,,-99.99,,2013-06-12 18:32:00,
2013-06-12 13:43:00,84.0,69.0,29.54,SSW,212,4.0,10.0,61,87.56,,,-99.99,,2013-06-12 18:43:00,
2013-06-12 13:53:00,84.0,69.0,29.54,SW,218,4.0,11.0,60,87.56,,,-99.99,,2013-06-12 18:53:00,
2013-06-12 14:01:00,85.0,70.0,29.54,SW,232,3.0,8.0,62,87.56,,,-99.99,,2013-06-12 19:01:00,
2013-06-12 14:11:00,85.0,70.0,29.54,SSW,200,3.0,13.0,62,87.56,,,-99.99,,2013-06-12 19:11:00,
2013-06-12 14:22:00,85.0,70.0,29.54,SW,221,5.0,12.0,61,87.56,,,-99.99,,2013-06-12 19:22:00,
2013-06-12 14:32:00,85.0,70.0,29.54,SW,232,5.0,13.0,61,87.56,,,-99.99,,2013-06-12 19:32:00,
2013-06-12 14:42:00,85.0,69.0,29.54,WSW,238,5.0,18.0,59,87.56,,,-99.99,,2013-06-12 19:42:00,
2013-06-12 14:52:00,86.0,70.0,29.54,SW,219,4.0,12.0,59,87.56,,,-99.99,,2013-06-12 19:52:00,
2013-06-12 15:01:00,87.0,70.0,29.54,WSW,243,2.0,7.0,58,87.56,,,-99.99,,2013-06-12 20:01:00,
2013-06-12 15:11:00,86.0,69.0,29.54,SW,225,6.0,13.0,57,87.56,,,-99.99,,2013-06-12 20:11:00,
2013-06-12 15:22:00,86.0,69.0,29.54,WSW,239,3.0,11.0,58,87.56,,,-99.99,,2013-06-12 20:22:00,
2013-06-12 15:32:00,86.0,68.0,29.54,SSW,203,4.0,13.0,55,87.56,,,-99.99,,2013-06-12 20:32:00,
2013-06-12 15:42:00,86.0,68.0,29.54,SW,235,5.0,13.0,56,87.56,,,-99.99,,2013-06-12 20:42:00,
2013-06-12 15:54:00,87.0,69.0,29.54,South,176,2.0,8.0,56,87.56,,,-99.99,,2013-06-12 20:54:00,
2013-06-12 16:01:00,87.0,69.0,29.54,SW,219,3.0,9.0,55,87.56,,,-99.99,,2013-06-12 21:01:00,
2013-06-12 16:11:00,87.0,69.0,29.54,SSW,208,3.0,12.0,55,87.56,,,-99.99,,2013-06-12 21:11:00,
2013-06-12 16:43:00,88.0,69.0,29.55,WSW,249,2.0,7.0,54,87.56,,,-99.99,,2013-06-12 21:43:00,
2013-06-12 16:52:00,88.0,70.0,29.55,SW,224,1.0,7.0,55,87.56,,,-99.99,,2013-06-12 21:52:00,
2013-06-12 17:01:00,88.0,69.0,29.55,WSW,246,0.0,5.0,53,87.56,,,-99.99,,2013-06-12 22:01:00,
2013-06-12 17:11:00,88.0,69.0,29.55,SSW,197,1.0,8.0,53,87.56,,,-99.99,,2013-06-12 22:11:00,
2013-06-12 17:22:00,87.0,68.0,29.55,WSW,248,1.0,6.0,54,87.56,,,-99.99,,2013-06-12 22:22:00,
2013-06-12 17:52:00,88.0,68.0,29.56,SSW,207,1.0,7.0,52,87.56,,,-99.99,,2013-06-12 22:52:00,
2013-06-12 18:02:00,88.0,70.0,29.55,North,0,0.0,0.0,55,87.56,,,-99.99,,2013-06-12 23:02:00,
2013-06-12 18:22:00,88.0,70.0,29.55,SW,229,0.0,2.0,56,87.56,,,-99.99,,2013-06-12 23:22:00,
2013-06-12 18:32:00,88.0,70.0,29.55,SSE,166,1.0,4.0,55,87.56,,,-99.99,,2013-06-12 23:32:00,
2013-06-12 18:42:00,88.0,70.0,29.55,NNW,328,0.0,3.0,55,87.56,,,-99.99,,2013-06-12 23:42:00,
2013-06-12 19:42:00,85.0,69.0,29.56,SSW,205,1.0,5.0,58,87.56,,,-99.99,,2013-06-13 00:42:00,
2013-06-12 20:43:00,84.0,69.0,29.57,SW,221,0.0,2.0,61,87.56,,,-99.99,,2013-06-13 01:43:00,
2013-06-12 20:53:00,83.0,68.0,29.57,SW,233,0.0,3.0,61,87.56,,,-99.99,,2013-06-13 01:53:00,
2013-06-12 23:11:00,77.0,64.0,29.66,NW,305,1.0,4.0,64,87.56,,,-99.99,,2013-06-13 04:11:00,
2013-06-12 23:22:00,76.0,63.0,29.66,NW,311,2.0,10.0,64,87.56,,,-99.99,,2013-06-13 04:22:00,
2013-06-12 23:32:00,75.0,62.0,29.67,WNW,288,3.0,10.0,65,87.56,,,-99.99,,2013-06-13 04:32:00,
2013-06-12 23:43:00,75.0,63.0,29.67,North,356,6.0,13.0,66,87.56,,,-99.99,,2013-06-13 04:43:00,
2013-06-12 23:53:00,74.0,62.0,29.67,NW,316,4.0,10.0,66,87.56,,,-99.99,,2013-06-13 04:53:00,